Location: Newark
(46.1292°N, 1.0086°W)
Time: 12:48:30
(UTC+00:00)

Vanguard 3 - Pass Details

Date: 23 November 2019
Orbit: 508 x 3263 km, 33.3° (Epoch: 12 December)

Event Time Altitude Azimuth Distance (km) Brightness Sun altitude
Rises 16:09:03 0° 266° (W) 7,133 13.2 1.6°
Reaches altitude 10° 16:13:59 10° 262° (W) 6,192 13.1 0.8°
Maximum altitude 16:32:26 49° 196° (SSW) 3,508 10.8 -2.0°
Drops below altitude 10° 16:46:16 10° 127° (SE) 4,745 10.8 -4.1°
Sets 16:49:29 0° 122° (ESE) 5,424 11.0 -4.6°
